{"data":{"norad_id":65542,"epoch":"2026-05-25T03:53:36.275424Z","epoch_age_seconds":64174,"freshness":"FRESH","line1":"1 65542U 25200Y   26145.16222541 -.00005014  00000+0 -34388-3 0  9992","line2":"2 65542  97.4503 214.7469 0000419   5.7207 354.4025 15.05630166 40639","mean_motion":15.05630166,"eccentricity":4.19e-5,"inclination_deg":97.4503,"raan_deg":214.7469,"arg_perigee_deg":5.7207,"mean_anomaly_deg":354.4025,"bstar":-0.00034388,"rev_number":4063,"period_min":95.641016799341,"perigee_km":549.28172252878,"apogee_km":549.86226454244,"semimajor_km":6927.7089935356,"source":"CELESTRAK","updated_at":"2026-05-25T13:38:20.851148Z"}}